Location: アルンシュタイン
(50.0000°N, 10.0000°E)
Time: 14:52:42
(UTC+02:00)

Vanguard 1 - Pass Details

Date: 19 September 2024
Orbit: 649 x 3825 km, 34.3° (Epoch: 02 October)

Event Time Altitude Azimuth Distance (km) Brightness Sun altitude
Rises 09:31:55 0° 186° (S) 7,603 14.9 22.4°
Reaches altitude 10° 09:43:35 10° 159° (SSE) 5,816 14.9 24.1°
Maximum altitude 09:47:18 11° 146° (SE) 5,401 15.1 24.6°
Drops below altitude 10° 09:50:40 10° 133° (SE) 5,164 15.5 25.0°
Sets 09:58:24 0° 102° (ESE) 5,316 14.9 26.1°
